This is the latest recevied weather packets stored in our database for station/object KM4NDN. If no packets are shown the sender has not sent any weather packets the latest 10 day(s).
| Time | Temp. | Humidity | Pressure | Rain* | Wind** | Luminosity | Snow |
|---|---|---|---|---|---|---|---|
| 1778101401 | 11.67° C | 47% | 1010.8 hPa | 0 mm | - | 264 W/m² | - |
| 1778101098 | 11.67° C | 48% | 1010.7 hPa | 0 mm | - | 229 W/m² | - |
| 1778100794 | 11.67° C | 45% | 1010.7 hPa | 0 mm | - | 256 W/m² | - |
| 1778100490 | 11.67° C | 47% | 1010.8 hPa | 0 mm | - | 235 W/m² | - |
| 1778100189 | 11.67° C | 48% | 1010.7 hPa | 0 mm | - | 197 W/m² | - |
| 1778099886 | 11.67° C | 49% | 1010.6 hPa | 0 mm | - | 196 W/m² | - |
| 1778099583 | 11.67° C | 48% | 1010.6 hPa | 0 mm | - | 136 W/m² | - |
| 1778099280 | 12.22° C | 47% | 1010.5 hPa | 0 mm | - | 155 W/m² | - |
| 1778098977 | 12.22° C | 48% | 1010.6 hPa | 0 mm | - | 194 W/m² | - |
| 1778098673 | 12.78° C | 47% | 1010.6 hPa | 0 mm | - | 272 W/m² | - |
| 1778098370 | 12.78° C | 51% | 1010.5 hPa | 0 mm | - | 309 W/m² | - |
| 1778098068 | 12.78° C | 47% | 1010.6 hPa | 0 mm | - | 367 W/m² | - |
| 1778097764 | 12.78° C | 50% | 1010.7 hPa | 0 mm | - | 371 W/m² | - |
| 1778097460 | 12.78° C | 48% | 1010.8 hPa | 0 mm | - | 394 W/m² | - |
| 1778097156 | 12.78° C | 46% | 1010.8 hPa | 0 mm | - | 399 W/m² | - |
| 1778096854 | 12.78° C | 49% | 1010.7 hPa | 0 mm | - | 505 W/m² | - |
| 1778096550 | 12.78° C | 46% | 1010.7 hPa | 0 mm | - | 433 W/m² | - |
| 1778096248 | 12.78° C | 48% | 1010.8 hPa | 0 mm | - | 258 W/m² | - |
| 1778095945 | 13.33° C | 44% | 1010.8 hPa | 0 mm | - | 260 W/m² | - |
| 1778095641 | 13.33° C | 46% | 1010.7 hPa | 0 mm | - | 403 W/m² | - |
| 1778095338 | 13.33° C | 46% | 1010.6 hPa | 0 mm | - | 432 W/m² | - |
| 1778095035 | 13.33° C | 46% | 1010.9 hPa | 0 mm | - | 413 W/m² | - |
| 1778094731 | 13.33° C | 46% | 1010.9 hPa | 0 mm | - | 447 W/m² | - |
| 1778094428 | 13.89° C | 47% | 1010.5 hPa | 0 mm | - | 526 W/m² | - |
| 1778094125 | 13.89° C | 43% | 1010.7 hPa | 0 mm | - | 477 W/m² | - |
* Rain latest hour (hover to see other rain measurements)
** Current wind speed in m/s (hover to see current wind gust speed)